Newport, AR

5:33 AM CDT on September 26, 2017 (GMT -0500)
Newport

Weather History for KM19 - November, 2012

Change the Weather History Date:

Friday, November 30, 2012

  Actual Average (KBVX) Record (KBVX)
Temperature  
Mean Temperature 46 °F -  
Max Temperature 57 °F 56 °F 75 °F (2014)
Min Temperature 34 °F 33 °F 11 °F (1976)
Degree Days  
Heating Degree Days 20    
Moisture  
Dew Point 41 °F    
Average Humidity 76    
Maximum Humidity 89    
Minimum Humidity 53    
Precipitation  
Precipitation 0.00 in - - ()
Sea Level Pressure  
Sea Level Pressure 30.20 in    
Wind  
Wind Speed 9 mph (South)    
Max Wind Speed 17 mph    
Max Gust Speed 25 mph    
Visibility 10 miles    
Events      
Averages and records for this station are not official NWS values.
T = Trace of Precipitation, MM = Missing Value Source: NWS Daily Summary

Daily Weather History Graph

Daily Weather History Graph

Search for Another Location

Airport or City:

Trip Planner

Search our weather history database for the weather conditions in past years. The results will help you decide how hot, cold, wet, or windy it might be!

Date:

Astronomy

Nov. 30, 2012 Rise Set
Actual Time 6:55 AM CST 4:51 PM CST
Civil Twilight 6:27 AM CST 5:19 PM CST
Nautical Twilight 5:55 AM CST 5:51 PM CST
Astronomical Twilight 5:25 AM CST 6:21 PM CST
Moon 6:46 PM CST (11/30) 8:27 AM CST (11/30)
Length of Visible Light 10h 52m
Length of Day
9h 56m
Waning Gibbous, 96% of the Moon is Illuminated
Nov 30
Waning Gibbous
Dec 6
Last Quarter
Dec 13
New
Dec 19
First Quarter
Dec 28
Full

Hourly Weather History & Observations

Time (CST) Temp. Windchill Dew Point Humidity Pressure Visibility Wind Dir Wind Speed Gust Speed Precip Events Conditions
12:56 AM 37.9 °F 30.9 °F 32.9 °F 82% 30.22 in 10.0 mi South 10.4 mph - N/A   Clear
1:56 AM 37.9 °F 32.1 °F 32.0 °F 79% 30.22 in 10.0 mi South 8.1 mph - N/A   Clear
2:56 AM 38.8 °F 34.6 °F 32.9 °F 79% 30.24 in 10.0 mi SSW 5.8 mph - N/A   Clear
3:56 AM 36.9 °F 33.1 °F 32.0 °F 83% 30.23 in 10.0 mi South 4.6 mph - N/A   Clear
4:56 AM 34.0 °F 29.8 °F 31.1 °F 89% 30.24 in 10.0 mi SE 4.6 mph - N/A   Clear
5:56 AM 34.9 °F 27.7 °F 32.0 °F 89% 30.22 in 10.0 mi South 9.2 mph - N/A   Partly Cloudy
6:56 AM 36.0 °F - 32.9 °F 89% 30.23 in 10.0 mi North - - N/A   Clear
7:56 AM 41.0 °F 35.8 °F 36.0 °F 82% 30.25 in 10.0 mi South 8.1 mph - N/A   Clear
8:56 AM 46.9 °F - 38.8 °F 73% 30.25 in 10.0 mi South 12.7 mph 20.7 mph N/A   Clear
9:56 AM 52.9 °F - 38.8 °F 59% 30.24 in 10.0 mi SSW 13.8 mph - N/A   Clear
10:56 AM 57.9 °F - 41.0 °F 53% 30.23 in 10.0 mi SSW 11.5 mph 24.2 mph N/A   Partly Cloudy
11:56 AM 57.9 °F - 43.0 °F 58% 30.21 in 10.0 mi SW 16.1 mph 23.0 mph N/A   Overcast
12:56 PM 57.9 °F - 45.0 °F 62% 30.18 in 10.0 mi SW 17.3 mph 25.3 mph N/A   Overcast
1:56 PM 57.9 °F - 45.9 °F 64% 30.17 in 10.0 mi SSW 9.2 mph - N/A   Overcast
2:56 PM 56.8 °F - 46.9 °F 69% 30.17 in 10.0 mi SSW 6.9 mph - N/A   Overcast
3:56 PM 56.8 °F - 47.8 °F 72% 30.17 in 10.0 mi South 9.2 mph - N/A   Overcast
4:56 PM 54.9 °F - 47.8 °F 77% 30.16 in 10.0 mi SE 6.9 mph - N/A   Mostly Cloudy
5:56 PM 50.9 °F - 46.9 °F 86% 30.17 in 10.0 mi South 6.9 mph - N/A   Clear
6:56 PM 54.0 °F - 48.9 °F 83% 30.17 in 10.0 mi SSW 6.9 mph - N/A   Mostly Cloudy
7:56 PM 52.9 °F - 48.9 °F 86% 30.17 in 10.0 mi South 10.4 mph - N/A   Mostly Cloudy
9:56 PM 55.9 °F - 50.0 °F 80% 30.18 in 10.0 mi South 12.7 mph - N/A   Overcast
10:56 PM 54.9 °F - 48.9 °F 80% 30.18 in 10.0 mi South 10.4 mph - N/A   Overcast
11:56 PM 54.9 °F - 48.9 °F 80% 30.17 in 10.0 mi South 10.4 mph - N/A   Overcast